| time (UTC) | temp F | wind direction | speed knots | gust knots | rain 1hr in | rain 24hr in | rain mn in | humidity % | barometer mb |
| 20260504191506 | -35 | 53 | 6.1 | 9.6 | 0.00 | 1.95 | 1.41 | 1015.5 | |
| 20260504185518 | -35 | 24 | 7.0 | 10.4 | 0.00 | 2.15 | 1.41 | 1015.8 | |
| 20260504182603 | -35 | 31 | 8.7 | 11.3 | 0.00 | 2.15 | 1.41 | 1016.0 | |
| 20260504181040 | -35 | 23 | 9.6 | 11.3 | 0.00 | 2.15 | 1.41 | 1016.2 | |
| 20260504175022 | -35 | 24 | 8.7 | 12.2 | 0.00 | 2.74 | 1.41 | 1016.3 | |
| 20260504172620 | -35 | 24 | 10.4 | 13.0 | 0.00 | 2.74 | 1.41 | 1016.4 | |
| 20260504171003 | -35 | 16 | 9.6 | 12.2 | 0.00 | 2.74 | 1.41 | 1016.4 | |
| 20260504151013 | -35 | 21 | 4.3 | 8.7 | 0.00 | 2.76 | 1.41 | 1016.9 | |
| 20260504141013 | -35 | 334 | 3.5 | 7.0 | 0.00 | 2.76 | 1.41 | 1016.7 | |
| 20260504081009 | -26 | 324 | 6.1 | 8.7 | 0.28 | 2.76 | 1.41 | 1014.7 | |
| 20260504044655 | -46 | 165 | 4.3 | 9.6 | 0.05 | 1.41 | 0.05 | 1016.7 | |
| 20260504043139 | -46 | 155 | 3.5 | 8.7 | 0.04 | 1.40 | 0.04 | 1016.8 | |
| 20260504035619 | -48 | 163 | 3.5 | 7.8 | 0.02 | 1.41 | 1.36 | 1016.2 | |
| 20260504034100 | -49 | 182 | 4.3 | 7.0 | 0.04 | 1.41 | 1.36 | 1016.2 | |
| 20260504025534 | -50 | 147 | 5.2 | 12.2 | 0.06 | 1.39 | 1.34 | 1016.7 | |
| 20260504024003 | -52 | 128 | 7.0 | 10.4 | 0.04 | 1.37 | 1.32 | 1016.7 | |
| 20260504014620 | -54 | 151 | 7.8 | 15.6 | 0.00 | 1.33 | 1.28 | 1016.3 | |
| 20260504013103 | -54 | 124 | 5.2 | 8.7 | 0.00 | 1.33 | 1.28 | 1016.2 | |
| 20260504011550 | -49 | 152 | 2.6 | 6.1 | 0.00 | 1.33 | 1.28 | 1016.5 | |
| 20260504005009 | -54 | 86 | 2.6 | 5.2 | 0.00 | 1.33 | 1.28 | 1015.9 | |
| 20260504003605 | -54 | 68 | 3.5 | 5.2 | 0.00 | 1.33 | 1.28 | 1016.0 | |
| 20260504001614 | -54 | 64 | 2.6 | 5.2 | 0.00 | 1.33 | 1.28 | 1015.7 | |
| 20260503235104 | -54 | 84 | 3.5 | 7.8 | 0.00 | 1.33 | 1.28 | 1015.3 | |
| 20260503233003 | -50 | 95 | 5.2 | 7.8 | 0.00 | 1.33 | 1.28 | 1015.3 | |
| 20260503231549 | -54 | 99 | 4.3 | 7.0 | 0.00 | 1.33 | 1.28 | 1014.8 | |
| 20260503225603 | -50 | 99 | 3.5 | 7.0 | 0.00 | 1.33 | 1.28 | 1015.0 | |
| 20260503223631 | -54 | 76 | 1.7 | 4.3 | 0.00 | 1.33 | 1.28 | 1014.7 | |
| 20260503221549 | -54 | 59 | 2.6 | 5.2 | 0.00 | 1.33 | 1.28 | 1014.7 | |
| 20260503215650 | -54 | 62 | 1.7 | 4.3 | 0.00 | 1.33 | 1.28 | 1014.8 | |
| 20260503213605 | -52 | 27 | 2.6 | 6.1 | 0.00 | 1.33 | 1.28 | 1015.0 | |
| 20260503211526 | -49 | 75 | 3.5 | 7.0 | 0.00 | 1.33 | 1.28 | 1015.0 | |
| 20260503205049 | -48 | 70 | 4.3 | 7.0 | 0.18 | 1.33 | 1.28 | 1015.7 | |
| 20260503203629 | -50 | 97 | 1.7 | 5.2 | 0.26 | 1.33 | 1.28 | 1016.1 | |
| 20260503201549 | -49 | 18 | 4.3 | 9.6 | 0.32 | 1.33 | 1.28 | 1015.9 | |
| 20260503195026 | -50 | 201 | 2.6 | 6.1 | 0.37 | 1.12 | 1.08 | 1016.7 |